Location: Newark
(48.2308°N, 120.8549°W)
Time: 01:20:36
(UTC+00:00)

Transit 2A Rocket - Pass Details

Date: 30 May 2020
Orbit: 584 x 919 km, 66.7° (Epoch: 13 July)

Event Time Altitude Azimuth Distance (km) Brightness Sun altitude
Rises 11:23:07 0° 314° (NW) 3,366 8.3 -6.6°
Reaches altitude 10° 11:27:08 10° 342° (NNW) 2,504 8.0 -6.1°
Maximum altitude 11:29:41 13° 9° (N) 2,339 8.4 -5.8°
Drops below altitude 10° 11:32:18 10° 35° (NE) 2,573 9.4 -5.5°
Sets 11:36:33 0° 62° (ENE) 3,549 10.4 -5.0°
